Time,TemperatureF,DewpointF,PressureIn,WindDirection,WindDirectionDegrees,WindSpeedMPH,WindSpeedGustMPH,Humidity,HourlyPrecipIn,Conditions,Clouds,dailyrainin,SolarRadiationWatts/m^2,SoftwareType,DateUTC
2013-04-18 00:11:00,73.7,73.0,29.64,ESE,123,4.0,-999.0,96,-99.99,,,0.01,0,weatherlink.com 1.10,2013-04-18 05:11:00,
2013-04-18 00:26:00,73.7,73.0,29.64,NNE,19,3.0,-999.0,96,-99.99,,,0.01,0,weatherlink.com 1.10,2013-04-18 05:26:00,
2013-04-18 00:41:00,73.6,72.0,29.64,South,184,10.0,-999.0,96,-99.99,,,0.02,0,weatherlink.com 1.10,2013-04-18 05:41:00,
2013-04-18 00:56:00,73.6,72.0,29.63,ESE,113,6.0,-999.0,96,-99.99,,,0.02,0,weatherlink.com 1.10,2013-04-18 05:56:00,
2013-04-18 01:11:00,73.5,72.0,29.63,SSE,157,5.0,-999.0,96,-99.99,,,0.02,0,weatherlink.com 1.10,2013-04-18 06:11:00,
2013-04-18 01:26:00,73.5,72.0,29.62,South,176,12.0,-999.0,96,-99.99,,,0.02,0,weatherlink.com 1.10,2013-04-18 06:26:00,
2013-04-18 01:41:00,73.6,72.0,29.62,SE,137,4.0,-999.0,96,-99.99,,,0.02,0,weatherlink.com 1.10,2013-04-18 06:41:00,
2013-04-18 01:56:00,73.7,73.0,29.62,South,175,12.0,-999.0,96,-99.99,,,0.02,0,weatherlink.com 1.10,2013-04-18 06:56:00,
2013-04-18 02:11:00,73.7,72.0,29.61,South,188,6.0,-999.0,95,-99.99,,,0.02,0,weatherlink.com 1.10,2013-04-18 07:11:00,
2013-04-18 02:26:00,73.8,72.0,29.61,SE,137,12.0,-999.0,95,-99.99,,,0.02,0,weatherlink.com 1.10,2013-04-18 07:26:00,
2013-04-18 02:41:00,73.7,72.0,29.61,SE,128,6.0,-999.0,95,-99.99,,,0.02,0,weatherlink.com 1.10,2013-04-18 07:41:00,
2013-04-18 02:56:00,73.6,72.0,29.62,SE,138,9.0,-999.0,95,-99.99,,,0.02,0,weatherlink.com 1.10,2013-04-18 07:56:00,
2013-04-18 03:11:00,73.5,72.0,29.62,SSE,155,7.0,-999.0,95,-99.99,,,0.02,0,weatherlink.com 1.10,2013-04-18 08:11:00,
2013-04-18 03:27:00,73.4,72.0,29.62,SSE,162,5.0,-999.0,95,-99.99,,,0.02,0,weatherlink.com 1.10,2013-04-18 08:27:00,
2013-04-18 03:42:00,73.4,72.0,29.62,ESE,105,8.0,-999.0,96,-99.99,,,0.02,0,weatherlink.com 1.10,2013-04-18 08:42:00,
2013-04-18 03:57:00,73.3,72.0,29.61,NNW,337,4.0,-999.0,96,-99.99,,,0.02,0,weatherlink.com 1.10,2013-04-18 08:57:00,
2013-04-18 04:12:00,73.3,72.0,29.59,SE,146,5.0,-999.0,96,-99.99,,,0.02,0,weatherlink.com 1.10,2013-04-18 09:12:00,
2013-04-18 04:27:00,73.2,72.0,29.59,SE,146,13.0,-999.0,96,-99.99,,,0.02,0,weatherlink.com 1.10,2013-04-18 09:27:00,
2013-04-18 04:42:00,73.2,72.0,29.59,SE,144,7.0,-999.0,96,-99.99,,,0.00,0,weatherlink.com 1.10,2013-04-18 09:42:00,
2013-04-18 04:57:00,73.1,72.0,29.57,SSE,148,11.0,-999.0,96,-99.99,,,0.00,0,weatherlink.com 1.10,2013-04-18 09:57:00,
2013-04-18 05:12:00,73.1,72.0,29.57,South,182,8.0,-999.0,96,-99.99,,,0.00,0,weatherlink.com 1.10,2013-04-18 10:12:00,
2013-04-18 05:27:00,73.1,72.0,29.56,ESE,122,4.0,-999.0,96,-99.99,,,0.00,0,weatherlink.com 1.10,2013-04-18 10:27:00,
2013-04-18 05:42:00,73.2,72.0,29.57,SE,144,13.0,-999.0,96,-99.99,,,0.00,0,weatherlink.com 1.10,2013-04-18 10:42:00,
2013-04-18 05:57:00,73.2,72.0,29.58,ESE,103,5.0,-999.0,96,-99.99,,,0.00,0,weatherlink.com 1.10,2013-04-18 10:57:00,
2013-04-18 06:12:00,73.3,72.0,29.59,ESE,111,4.0,-999.0,96,-99.99,,,0.00,0,weatherlink.com 1.10,2013-04-18 11:12:00,
2013-04-18 06:27:00,73.4,72.0,29.58,ESE,105,12.0,-999.0,96,-99.99,,,0.00,0,weatherlink.com 1.10,2013-04-18 11:27:00,
2013-04-18 06:42:00,73.4,72.0,29.58,South,182,6.0,-999.0,96,-99.99,,,0.00,0,weatherlink.com 1.10,2013-04-18 11:42:00,
2013-04-18 06:57:00,73.4,72.0,29.58,SE,129,6.0,-999.0,96,-99.99,,,0.00,0,weatherlink.com 1.10,2013-04-18 11:57:00,
2013-04-18 07:12:00,73.3,72.0,29.59,SE,144,5.0,-999.0,95,-99.99,,,0.00,11,weatherlink.com 1.10,2013-04-18 12:12:00,
2013-04-18 07:42:00,73.7,72.0,29.59,ESE,105,4.0,-999.0,95,-99.99,,,0.00,33,weatherlink.com 1.10,2013-04-18 12:42:00,
2013-04-18 07:57:00,73.9,72.0,29.60,SSE,168,5.0,-999.0,95,-99.99,,,0.00,37,weatherlink.com 1.10,2013-04-18 12:57:00,
2013-04-18 08:12:00,74.1,73.0,29.60,SSE,161,7.0,-999.0,95,-99.99,,,0.00,39,weatherlink.com 1.10,2013-04-18 13:12:00,
2013-04-18 08:27:00,74.2,72.0,29.60,SSE,161,4.0,-999.0,94,-99.99,,,0.00,62,weatherlink.com 1.10,2013-04-18 13:27:00,
2013-04-18 08:42:00,74.4,73.0,29.60,South,186,4.0,-999.0,94,-99.99,,,0.00,49,weatherlink.com 1.10,2013-04-18 13:42:00,
2013-04-18 08:57:00,74.7,73.0,29.60,SE,124,6.0,-999.0,94,-99.99,,,0.00,54,weatherlink.com 1.10,2013-04-18 13:57:00,
2013-04-18 09:12:00,75.1,73.0,29.60,SE,131,5.0,-999.0,94,-99.99,,,0.00,102,weatherlink.com 1.10,2013-04-18 14:12:00,
2013-04-18 09:27:00,75.3,73.0,29.61,SSE,151,6.0,-999.0,93,-99.99,,,0.00,97,weatherlink.com 1.10,2013-04-18 14:27:00,
2013-04-18 09:42:00,75.3,73.0,29.62,SE,142,5.0,-999.0,93,-99.99,,,0.00,100,weatherlink.com 1.10,2013-04-18 14:42:00,
2013-04-18 09:57:00,75.4,73.0,29.62,SE,144,11.0,-999.0,93,-99.99,,,0.00,104,weatherlink.com 1.10,2013-04-18 14:57:00,
2013-04-18 10:12:00,75.4,73.0,29.64,South,173,5.0,-999.0,93,-99.99,,,0.00,67,weatherlink.com 1.10,2013-04-18 15:12:00,
2013-04-18 10:27:00,75.7,73.0,29.65,SSE,161,7.0,-999.0,92,-99.99,,,0.00,46,weatherlink.com 1.10,2013-04-18 15:27:00,
2013-04-18 10:42:00,76.1,74.0,29.66,ESE,105,5.0,-999.0,92,-99.99,,,0.00,98,weatherlink.com 1.10,2013-04-18 15:42:00,
2013-04-18 10:57:00,76.4,74.0,29.65,SE,144,2.0,-999.0,91,-99.99,,,0.00,81,weatherlink.com 1.10,2013-04-18 15:57:00,
2013-04-18 11:12:00,76.9,74.0,29.65,SSE,150,3.0,-999.0,91,-99.99,,,0.00,352,weatherlink.com 1.10,2013-04-18 16:12:00,
2013-04-18 11:28:00,78.3,75.0,29.64,SSE,162,3.0,-999.0,89,-99.99,,,0.00,134,weatherlink.com 1.10,2013-04-18 16:28:00,
2013-04-18 11:43:00,78.6,75.0,29.65,SSE,163,4.0,-999.0,87,-99.99,,,0.00,174,weatherlink.com 1.10,2013-04-18 16:43:00,
2013-04-18 11:58:00,79.5,75.0,29.64,SSE,160,3.0,-999.0,86,-99.99,,,0.00,401,weatherlink.com 1.10,2013-04-18 16:58:00,
2013-04-18 12:13:00,80.7,75.0,29.64,SSE,161,3.0,-999.0,83,-99.99,,,0.00,297,weatherlink.com 1.10,2013-04-18 17:13:00,
2013-04-18 12:28:00,80.9,75.0,29.64,West,275,5.0,-999.0,82,-99.99,,,0.00,79,weatherlink.com 1.10,2013-04-18 17:28:00,
2013-04-18 12:43:00,80.8,75.0,29.64,West,281,4.0,-999.0,82,-99.99,,,0.00,132,weatherlink.com 1.10,2013-04-18 17:43:00,
2013-04-18 12:58:00,81.1,74.0,29.64,NW,306,3.0,-999.0,80,-99.99,,,0.00,77,weatherlink.com 1.10,2013-04-18 17:58:00,
2013-04-18 13:13:00,81.9,74.0,29.64,WNW,289,3.0,-999.0,78,-99.99,,,0.00,118,weatherlink.com 1.10,2013-04-18 18:13:00,
2013-04-18 13:28:00,82.1,74.0,29.65,NNW,336,3.0,-999.0,77,-99.99,,,0.00,127,weatherlink.com 1.10,2013-04-18 18:28:00,
2013-04-18 13:43:00,70.6,64.0,29.67,North,355,28.0,-999.0,79,-99.99,,,0.00,47,weatherlink.com 1.10,2013-04-18 18:43:00,
2013-04-18 13:58:00,63.4,60.0,29.71,North,5,18.0,-999.0,88,-99.99,,,0.01,44,weatherlink.com 1.10,2013-04-18 18:58:00,
2013-04-18 14:13:00,61.6,59.0,29.73,North,5,21.0,-999.0,91,-99.99,,,0.01,44,weatherlink.com 1.10,2013-04-18 19:13:00,
2013-04-18 14:28:00,61.2,58.0,29.74,North,355,22.0,-999.0,90,-99.99,,,0.01,156,weatherlink.com 1.10,2013-04-18 19:28:00,
2013-04-18 14:58:00,61.9,57.0,29.75,North,9,12.0,-999.0,84,-99.99,,,0.01,218,weatherlink.com 1.10,2013-04-18 19:58:00,
2013-04-18 15:13:00,62.1,57.0,29.75,North,360,17.0,-999.0,83,-99.99,,,0.01,185,weatherlink.com 1.10,2013-04-18 20:13:00,
2013-04-18 15:28:00,62.1,57.0,29.75,NNE,30,17.0,-999.0,83,-99.99,,,0.01,158,weatherlink.com 1.10,2013-04-18 20:28:00,
2013-04-18 15:43:00,62.3,56.0,29.75,North,349,17.0,-999.0,81,-99.99,,,0.01,225,weatherlink.com 1.10,2013-04-18 20:43:00,
2013-04-18 16:13:00,62.5,56.0,29.76,NE,38,14.0,-999.0,78,-99.99,,,0.01,279,weatherlink.com 1.10,2013-04-18 21:13:00,
2013-04-18 16:28:00,62.4,55.0,29.75,North,5,17.0,-999.0,76,-99.99,,,0.01,396,weatherlink.com 1.10,2013-04-18 21:28:00,
2013-04-18 16:43:00,62.9,55.0,29.76,NE,34,17.0,-999.0,74,-99.99,,,0.01,434,weatherlink.com 1.10,2013-04-18 21:43:00,
2013-04-18 16:58:00,63.9,55.0,29.76,NNE,25,16.0,-999.0,72,-99.99,,,0.01,329,weatherlink.com 1.10,2013-04-18 21:58:00,
2013-04-18 17:13:00,63.8,54.0,29.77,North,5,14.0,-999.0,71,-99.99,,,0.01,309,weatherlink.com 1.10,2013-04-18 22:13:00,
2013-04-18 17:28:00,64.7,54.0,29.77,North,355,11.0,-999.0,69,-99.99,,,0.01,392,weatherlink.com 1.10,2013-04-18 22:28:00,
2013-04-18 17:43:00,64.8,54.0,29.77,North,360,12.0,-999.0,67,-99.99,,,0.01,174,weatherlink.com 1.10,2013-04-18 22:43:00,
2013-04-18 17:58:00,65.4,54.0,29.77,NNE,15,12.0,-999.0,66,-99.99,,,0.01,413,weatherlink.com 1.10,2013-04-18 22:58:00,
2013-04-18 18:13:00,65.2,53.0,29.77,NNE,32,12.0,-999.0,64,-99.99,,,0.01,285,weatherlink.com 1.10,2013-04-18 23:13:00,
2013-04-18 18:28:00,65.2,53.0,29.79,NNW,342,13.0,-999.0,64,-99.99,,,0.01,179,weatherlink.com 1.10,2013-04-18 23:28:00,
2013-04-18 18:43:00,64.9,52.0,29.79,NE,44,16.0,-999.0,63,-99.99,,,0.01,127,weatherlink.com 1.10,2013-04-18 23:43:00,
2013-04-18 18:58:00,64.6,52.0,29.79,North,9,15.0,-999.0,63,-99.99,,,0.01,107,weatherlink.com 1.10,2013-04-18 23:58:00,
2013-04-18 19:13:00,64.3,52.0,29.79,NNE,22,15.0,-999.0,65,-99.99,,,0.01,63,weatherlink.com 1.10,2013-04-19 00:13:00,
2013-04-18 19:29:00,63.8,49.0,29.80,NE,41,16.0,-999.0,60,-99.99,,,0.01,76,weatherlink.com 1.10,2013-04-19 00:29:00,
2013-04-18 19:44:00,63.2,51.0,29.81,NNE,30,16.0,-999.0,64,-99.99,,,0.01,28,weatherlink.com 1.10,2013-04-19 00:44:00,
2013-04-18 19:59:00,62.7,51.0,29.82,NNE,17,12.0,-999.0,65,-99.99,,,0.01,0,weatherlink.com 1.10,2013-04-19 00:59:00,
2013-04-18 20:14:00,62.5,50.0,29.84,North,349,13.0,-999.0,65,-99.99,,,0.01,0,weatherlink.com 1.10,2013-04-19 01:14:00,
2013-04-18 20:29:00,62.5,50.0,29.86,NE,45,15.0,-999.0,65,-99.99,,,0.01,0,weatherlink.com 1.10,2013-04-19 01:29:00,
2013-04-18 20:44:00,62.2,51.0,29.88,North,5,11.0,-999.0,67,-99.99,,,0.01,0,weatherlink.com 1.10,2013-04-19 01:44:00,
2013-04-18 20:59:00,61.9,51.0,29.90,NNE,13,9.0,-999.0,68,-99.99,,,0.01,0,weatherlink.com 1.10,2013-04-19 01:59:00,
2013-04-18 21:14:00,61.7,51.0,29.91,NNE,23,12.0,-999.0,68,-99.99,,,0.01,0,weatherlink.com 1.10,2013-04-19 02:14:00,
2013-04-18 21:29:00,61.7,50.0,29.93,NNE,24,14.0,-999.0,66,-99.99,,,0.01,0,weatherlink.com 1.10,2013-04-19 02:29:00,
2013-04-18 21:44:00,61.4,50.0,29.94,NE,37,13.0,-999.0,66,-99.99,,,0.01,0,weatherlink.com 1.10,2013-04-19 02:44:00,
2013-04-18 21:52:00,-999.0,-99.9,29.95,North,-999,-999.0,-999.0,-999,-99.99,,,0.00,,weatherlink.com 1.10,2013-04-19 02:52:00,
2013-04-18 22:07:00,61.3,49.0,29.95,NNE,28,14.0,-999.0,65,-99.99,,,0.00,0,weatherlink.com 1.10,2013-04-19 03:07:00,
2013-04-18 22:22:00,60.9,49.0,29.96,NNE,32,12.0,-999.0,65,-99.99,,,0.00,0,weatherlink.com 1.10,2013-04-19 03:22:00,
2013-04-18 22:37:00,60.6,49.0,29.97,NNE,33,15.0,-999.0,66,-99.99,,,0.00,0,weatherlink.com 1.10,2013-04-19 03:37:00,
2013-04-18 22:52:00,60.4,49.0,29.97,NNE,19,16.0,-999.0,66,-99.99,,,0.00,0,weatherlink.com 1.10,2013-04-19 03:52:00,
2013-04-18 23:07:00,60.4,49.0,29.97,North,355,15.0,-999.0,67,-99.99,,,0.00,0,weatherlink.com 1.10,2013-04-19 04:07:00,
2013-04-18 23:22:00,60.4,49.0,29.98,NE,56,14.0,-999.0,67,-99.99,,,0.00,0,weatherlink.com 1.10,2013-04-19 04:22:00,
2013-04-18 23:37:00,60.3,49.0,29.99,North,5,16.0,-999.0,67,-99.99,,,0.00,0,weatherlink.com 1.10,2013-04-19 04:37:00,
2013-04-18 23:52:00,60.3,48.0,30.00,NNE,26,17.0,-999.0,64,-99.99,,,0.00,0,weatherlink.com 1.10,2013-04-19 04:52:00,